Location: Arboyeti
(42.1122°N, 44.6017°E)
Time: 15:57:45
(UTC+00:00)

Cosmos 1844 Rocket - Pass Details

Date: 19 April 2021
Orbit: 825 x 844 km, 71.0° (Epoch: 06 May)

Event Time Altitude Azimuth Distance (km) Brightness Sun altitude
Exits shadow 21:40:44 36° 3° (N) 1,281 4.0 -35.6°
Drops below altitude 10° 21:44:05 10° 18° (NNE) 2,436 5.9 -35.5°
Sets 21:46:34 0° 22° (NNE) 3,374 6.8 -35.4°
